Weather History for Milton, FL

Change the Weather History Date:

Thursday, November 3, 2011

  Actual Average (KNSE) Record (KNSE)
Temperature  
Mean Temperature 62 °F -  
Max Temperature 78 °F 72 °F 86 °F (2012)
Min Temperature 46 °F 53 °F 37 °F (1996)
Degree Days  
Heating Degree Days 4    
Growing Degree Days 12 (Base 50)    
Moisture  
Dew Point 54 °F    
Average Humidity 82    
Maximum Humidity 94    
Minimum Humidity 60    
Precipitation  
Precipitation 0.03 in - - ()
Sea Level Pressure  
Sea Level Pressure 30.02 in    
Wind  
Wind Speed 10 mph (West)    
Max Wind Speed 22 mph    
Max Gust Speed 34 mph    
Visibility 10 miles    
Events Rain    
Averages and records for this station are not official NWS values.
T = Trace of Precipitation, MM = Missing Value Source: NWS Daily Summary

Daily Weather History Graph

Daily Weather History Graph

Search for Another Location

Airport:

Trip Planner

Search our weather history database for the weather conditions in past years. The results will help you decide how hot, cold, wet, or windy it might be!

Date:

Astronomy

Nov. 03, 2011 Rise Set
Actual Time 7:04 AM CDT 5:58 PM CDT
Civil Twilight 6:39 AM CDT 6:23 PM CDT
Nautical Twilight 6:10 AM CDT 6:52 PM CDT
Astronomical Twilight 5:42 AM CDT 7:20 PM CDT
Moon 1:57 PM CDT (11/3) 12:43 AM CDT (11/3)
Length of Visible Light 11h 44m
Length of Day
10h 54m
First Quarter, 60% of the Moon is Illuminated
Nov 3
First Quarter
Nov 10
Full
Nov 18
Last Quarter
Nov 25
New
Dec 2
First Quarter

Hourly Weather History & Observations

Time (CDT) Temp. Windchill Dew Point Humidity Pressure Visibility Wind Dir Wind Speed Gust Speed Precip Events Conditions
12:56 AM 59.0 °F - 54.0 °F 83% 30.12 in 10.0 mi ESE 6.9 mph - N/A   Clear
1:56 AM 59.0 °F - 55.0 °F 87% 30.12 in 10.0 mi ESE 6.9 mph - N/A   Clear
2:56 AM 55.9 °F - 53.1 °F 90% 30.09 in 10.0 mi ESE 6.9 mph - N/A   Clear
3:56 AM 54.0 °F - 51.1 °F 90% 30.09 in 10.0 mi ESE 6.9 mph - N/A   Clear
4:56 AM 54.0 °F - 51.1 °F 90% 30.09 in 10.0 mi ESE 4.6 mph - N/A   Clear
5:56 AM 53.1 °F - 51.1 °F 93% 30.09 in 10.0 mi ESE 4.6 mph - N/A   Clear
6:56 AM 55.0 °F - 52.0 °F 89% 30.09 in 10.0 mi East 4.6 mph - N/A   Clear
7:56 AM 57.0 °F - 55.0 °F 93% 30.08 in 9.0 mi ESE 5.8 mph - N/A   Partly Cloudy
8:16 AM 57.2 °F - 55.4 °F 94% 30.11 in 10.0 mi ESE 6.9 mph - N/A   Mostly Cloudy
8:37 AM 60.8 °F - 57.2 °F 88% 30.10 in 10.0 mi SE 9.2 mph - N/A   Scattered Clouds
8:56 AM 63.0 °F - 60.1 °F 90% 30.07 in 10.0 mi SE 8.1 mph - N/A   Clear
9:56 AM 70.0 °F - 63.0 °F 78% 30.06 in 10.0 mi SSE 10.4 mph - N/A   Scattered Clouds
10:08 AM 71.6 °F - 64.4 °F 78% 30.09 in 10.0 mi South 11.5 mph 17.3 mph N/A   Mostly Cloudy
10:56 AM 75.0 °F - 64.0 °F 69% 30.04 in 10.0 mi South 17.3 mph 26.5 mph N/A   Mostly Cloudy
11:52 AM 75.2 °F - 62.6 °F 65% 30.05 in 10.0 mi South 16.1 mph 26.5 mph N/A   Overcast
11:56 AM 75.0 °F - 63.0 °F 66% 30.01 in 10.0 mi South 21.9 mph 26.5 mph N/A   Mostly Cloudy
12:56 PM 75.0 °F - 62.1 °F 64% 29.97 in 10.0 mi South 18.4 mph 27.6 mph N/A   Overcast
1:56 PM 77.0 °F - 62.1 °F 60% 29.93 in 10.0 mi South 13.8 mph 25.3 mph N/A   Overcast
2:56 PM 77.0 °F - 62.1 °F 60% 29.91 in 10.0 mi SSW 18.4 mph 31.1 mph 0.00 in   Overcast
3:29 PM 71.6 °F - 64.4 °F 78% 29.94 in 6.0 mi SSW 11.5 mph 21.9 mph 0.01 in Rain Heavy Rain
3:43 PM 71.6 °F - 66.2 °F 83% 29.93 in 10.0 mi SSW 6.9 mph - 0.01 in Rain Light Rain
3:56 PM 71.1 °F - 66.0 °F 84% 29.90 in 10.0 mi SSW 4.6 mph - 0.01 in   Overcast
4:56 PM 71.1 °F - 66.9 °F 87% 29.89 in 10.0 mi WSW 6.9 mph - 0.02 in   Overcast
5:09 PM 66.2 °F - 62.6 °F 88% 29.95 in 10.0 mi NW 12.7 mph 21.9 mph N/A   Overcast
5:18 PM 64.4 °F - 62.6 °F 94% 29.95 in 10.0 mi NNW 13.8 mph 18.4 mph N/A   Overcast
5:28 PM 62.6 °F - 60.8 °F 94% 29.96 in 10.0 mi NW 11.5 mph 20.7 mph N/A   Overcast
5:56 PM 59.0 °F - 57.0 °F 93% 29.93 in 10.0 mi NW 9.2 mph - N/A   Overcast
6:20 PM 59.0 °F - 55.4 °F 88% 29.98 in 10.0 mi NW 11.5 mph 18.4 mph N/A   Overcast
6:30 PM 59.0 °F - 55.4 °F 88% 29.98 in 10.0 mi NNW 16.1 mph 24.2 mph N/A   Overcast
6:48 PM 57.2 °F - 53.6 °F 88% 29.99 in 10.0 mi NW 15.0 mph 24.2 mph N/A   Overcast
6:56 PM 55.9 °F - 52.0 °F 87% 29.96 in 10.0 mi NW 12.7 mph 24.2 mph N/A   Overcast
7:05 PM 55.4 °F - 50.0 °F 82% 30.00 in 10.0 mi NNW 16.1 mph 27.6 mph N/A   Mostly Cloudy
7:17 PM 53.6 °F - 50.0 °F 88% 30.00 in 10.0 mi NW 13.8 mph 21.9 mph N/A   Scattered Clouds
7:56 PM 53.1 °F - 48.0 °F 83% 29.98 in 10.0 mi NNW 13.8 mph 23.0 mph N/A   Clear
8:39 PM 50.0 °F - 44.6 °F 82% 30.05 in 10.0 mi NNW 18.4 mph 31.1 mph N/A   Mostly Cloudy
8:49 PM 50.0 °F - 42.8 °F 76% 30.06 in 10.0 mi NNW 18.4 mph 34.5 mph N/A   Scattered Clouds
8:56 PM 48.9 °F - 41.0 °F 74% 30.02 in 10.0 mi NNW 19.6 mph 27.6 mph N/A   Mostly Cloudy
9:13 PM 48.2 °F - 41.0 °F 76% 30.06 in 10.0 mi NNW 16.1 mph 25.3 mph N/A   Scattered Clouds
9:43 PM 48.2 °F - 41.0 °F 76% 30.07 in 10.0 mi NNW 19.6 mph 27.6 mph N/A   Mostly Cloudy
9:56 PM 48.9 °F - 39.9 °F 71% 30.03 in 10.0 mi NNW 16.1 mph 26.5 mph N/A   Mostly Cloudy
10:08 PM 48.2 °F - 39.2 °F 71% 30.07 in 10.0 mi NNW 16.1 mph 21.9 mph N/A   Scattered Clouds
10:56 PM 46.0 °F 40.2 °F 39.9 °F 79% 30.02 in 10.0 mi NNW 12.7 mph - N/A   Clear
11:56 PM 46.0 °F 43.1 °F 39.0 °F 76% 30.02 in 10.0 mi NW 5.8 mph - N/A   Partly Cloudy